Tracking 18796 objects as of 19-September-2017
HD Live streaming from Space Station
objects crossing your sky now

GONETS D1 5

Track GONETS D1 5 now!
10-day predictions
GONETS D1 5 is classified as:


NORAD ID: 24729
Int'l Code: 1997-006E
Perigee: 1,415.6 km
Apogee: 1,420.6 km
Inclination: 82.6 °
Period: 114.0 minutes
Semi major axis: 7789 km
RCS: 0.9139 m2 (medium)
Launch date: February 14, 1997
Source: Commonwealth of Independent States (former USSR) (CIS)
Launch site: PLESETSK MISSILE AND SPACE COMPLEX (PKMTR)
aabbcc
Your satellite tracking list
Your tracking list is empty





NASA's NSSDC Master Catalog

Two Line Element Set (TLE):
1 24729U 97006E   17262.09171445 -.00000003 +00000-0 -74560-4 0  9996
2 24729 082.5968 116.8615 0003245 305.4049 054.6746 12.62910046949387
Source of the keplerian elements: AFSPC